QPF
0.00 0.00 0.00 0.00 0.00 0.00 0.00 0.00 0.00 0.00 0.00 0.00 0.00 0.00 0.00 0.00 0.00 0.00 0.00 0.00 0.00 0.00 0.00 0.00 0.00 0.00 0.00 0.00 0.00 0.00 0.00 0.00 0.00 0.00 0.00 0.00 0.00 0.00 0.00 0.00 0.00 0.00 0.00
0.00 0.00 0.00 0.00 0.00 0.00 0.00 0.00 0.00 0.00 0.00 0.00 0.00 0.00 0.00 0.00 0.00 0.00 0.00 0.00 0.00 0.00 0.00 0.00 0.00 0.00 0.00 0.00 0.00 0.00 0.00 0.00 0.00 0.00 0.00 0.00 0.00 0.00 0.00 0.00 0.00 0.00 0.00
0.00 0.00 0.00 0.00 0.00 0.00 0.00 0.00 0.00 0.00 0.00 0.00 0.00 0.00 0.00 0.00 0.00 0.00 0.00 0.00 0.00 0.00 0.00 0.00 0.00 0.00 0.00 0.00 0.00 0.00 0.00 0.00 0.00 0.00 0.00 0.00 0.00 0.00 0.00 0.00 0.00 0.00 0.00
0.00 0.00 0.00 0.00 0.00 0.00 0.00 0.00 0.00 0.00 0.00 0.00 0.00 0.00 0.00 0.00 0.00 0.00 0.00 0.00 0.00 0.00 0.00 0.00 0.00 0.00 0.00 0.00 0.00 0.00 0.00 0.00 0.00 0.00 0.00 0.00 0.00 0.00 0.00 0.00 0.00 0.00 0.00
0.00 0.00 0.00 0.00 0.00 0.00 0.00 0.00 0.00 0.00 0.00 0.00 0.00 0.00 0.00 0.00 0.00 0.00 0.00 0.00 0.00 0.00 0.00 0.00 0.00 0.00 0.00 0.00 0.00 0.00 0.00 0.00 0.00 0.00 0.00 0.00 0.00 0.00 0.00 0.00 0.00 0.00 0.00
0.00 0.00 0.00 0.00 0.00 0.00 0.00 0.00 0.00 0.00 0.00 0.00 0.00 0.00 0.00 0.00 0.00 0.00 0.00 0.00 0.00 0.00 0.00 0.00 0.00 0.00 0.00 0.00 0.00 0.00 0.00 0.00 0.00 0.00 0.00 0.00 0.00 0.00 0.00 0.00 0.00 0.00 0.00
0.00 0.00 0.00 0.00 0.00 0.00 0.00 0.00 0.00 0.00 0.00 0.00 0.00 0.00 0.00 0.00 0.00 0.00 0.00 0.00 0.00 0.00 0.00 0.00 0.00 0.00 0.00 0.00 0.00 0.00 0.00 0.00 0.00 0.00 0.00 0.00 0.00 0.00 0.00 0.00 0.00 0.00 0.00
0.00 0.00 0.00 0.00 0.00 0.00 0.00 0.00 0.00 0.00 0.00 0.00 0.00 0.00 0.00 0.00 0.00 0.00 0.00 0.00 0.00 0.00 0.00 0.00 0.00 0.00 0.00 0.00 0.00 0.00 0.00 0.00 0.00 0.00 0.00 0.00 0.00 0.00 0.00 0.00 0.00 0.00 0.00
0.00 0.00 0.00 0.00 0.00 0.00 0.00 0.00 0.00 0.00 0.00 0.00 0.00 0.00 0.00 0.00 0.00 0.00 0.00 0.00 0.00 0.00 0.00 0.00 0.00 0.00 0.00 0.00 0.00 0.00 0.00 0.00 0.00 0.00 0.00 0.00 0.00 0.00 0.00 0.00 0.00 0.00 0.00
0.00 0.00 0.00 0.00 0.00 0.00 0.00 0.00 0.00 0.00 0.00 0.00 0.00 0.00 0.00 0.00 0.00 0.00 0.00 0.00 0.00 0.00 0.00 0.00 0.00 0.00 0.00 0.00 0.00 0.00 0.00 0.00 0.00 0.00 0.00 0.00 0.00 0.00 0.00 0.00 0.00 0.00 0.00
0.00 0.00 0.00 0.00 0.00 0.00 0.00 0.00 0.00 0.00 0.00 0.00 0.00 0.00 0.00 0.00 0.00 0.00 0.00 0.00 0.00 0.00 0.00 0.00 0.00 0.00 0.00 0.00 0.00 0.00 0.00 0.00 0.00 0.00 0.00 0.00 0.00 0.00 0.00 0.00 0.00 0.00 0.00
0.00 0.00 0.00 0.00 0.00 0.00 0.00 0.00 0.00 0.00 0.00 0.00 0.00 0.00 0.00 0.00 0.00 0.00 0.00 0.00 0.00 0.00 0.00 0.00 0.00 0.00 0.00 0.00 0.00 0.00 0.00 0.00 0.00 0.00 0.00 0.00 0.00 0.00 0.00 0.00 0.00 0.00 0.00
0.00 0.00 0.00 0.00 0.00 0.00 0.00 0.00 0.00 0.00 0.00 0.00 0.00 0.00 0.00 0.00 0.00 0.00 0.00 0.00 0.00 0.00 0.00 0.00 0.00 0.00 0.00 0.00 0.00 0.00 0.00 0.00 0.00 0.00 0.00 0.00 0.00 0.00 0.00 0.00 0.00 0.00 0.00
0.00 0.00 0.00 0.00 0.00 0.00 0.00 0.00 0.00 0.00 0.00 0.00 0.00 0.00 0.00 0.00 0.00 0.00 0.00 0.00 0.00 0.00 0.00 0.00 0.00 0.00 0.00 0.00 0.00 0.00 0.00 0.00 0.00 0.00 0.00 0.00 0.00 0.00 0.00 0.00 0.00 0.00 0.00
0.00 0.00 0.00 0.00 0.00 0.00 0.00 0.00 0.00 0.00 0.00 0.00 0.00 0.00 0.00 0.00 0.00 0.00 0.00 0.00 0.00 0.00 0.00 0.00 0.00 0.00 0.00 0.00 0.00 0.00 0.00 0.00 0.00 0.00 0.00 0.00 0.00 0.00 0.00 0.00 0.00 0.00 0.00
0.00 0.00 0.00 0.00 0.00 0.00 0.00 0.00 0.00 0.00 0.00 0.00 0.00 0.00 0.00 0.00 0.00 0.00 0.00 0.00 0.00 0.00 0.00 0.00 0.00 0.00 0.00 0.00 0.00 0.00 0.00 0.00 0.00 0.00 0.00 0.00 0.00 0.00 0.00 0.00 0.00 0.00 0.00
0.00 0.00 0.00 0.00 0.00 0.00 0.00 0.00 0.00 0.00 0.00 0.00 0.00 0.00 0.00 0.00 0.00 0.00 0.00 0.00 0.00 0.00 0.00 0.00 0.00 0.00 0.00 0.00 0.00 0.00 0.00 0.00 0.00 0.00 0.00 0.00 0.00 0.00 0.00 0.00 0.00 0.00 0.00
0.00 0.00 0.00 0.00 0.00 0.00 0.00 0.00 0.00 0.00 0.00 0.00 0.00 0.00 0.00 0.00 0.00 0.00 0.00 0.00 0.00 0.00 0.00 0.00 0.00 0.00 0.00 0.00 0.00 0.00 0.00 0.00 0.00 0.00 0.00 0.00 0.00 0.00 0.00 0.00 0.00 0.00 0.00
0.00 0.00 0.00 0.00 0.00 0.00 0.00 0.00 0.00 0.00 0.00 0.00 0.00 0.00 0.00 0.00 0.00 0.00 0.00 0.00 0.00 0.00 0.00 0.00 0.00 0.00 0.00 0.00 0.00 0.00 0.00 0.00 0.00 0.00 0.00 0.00 0.00 0.00 0.00 0.00 0.00 0.00 0.00
0.00 0.00 0.00 0.00 0.00 0.00 0.00 0.00 0.00 0.00 0.00 0.00 0.00 0.00 0.00 0.00 0.00 0.00 0.00 0.00 0.00 0.00 0.00 0.00 0.00 0.00 0.00 0.00 0.00 0.00 0.00 0.00 0.00 0.00 0.00 0.00 0.00 0.00 0.00 0.00 0.00 0.00 0.00
0.00 0.00 0.00 0.00 0.00 0.00 0.00 0.00 0.00 0.00 0.00 0.00 0.00 0.00 0.00 0.00 0.00 0.00 0.00 0.00 0.00 0.00 0.00 0.00 0.00 0.00 0.00 0.00 0.00 0.00 0.00 0.00 0.00 0.00 0.00 0.00 0.00 0.00 0.00 0.00 0.00 0.00 0.00
0.00 0.00 0.00 0.00 0.00 0.00 0.00 0.00 0.00 0.00 0.00 0.00 0.00 0.00 0.00 0.00 0.00 0.00 0.00 0.00 0.00 0.00 0.00 0.00 0.00 0.00 0.00 0.00 0.00 0.00 0.00 0.00 0.00 0.00 0.00 0.00 0.00 0.00 0.00 0.00 0.00 0.00 0.00
0.00 0.00 0.00 0.00 0.00 0.00 0.00 0.00 0.00 0.00 0.00 0.00 0.00 0.00 0.00 0.00 0.00 0.00 0.00 0.00 0.00 0.00 0.00 0.00 0.00 0.00 0.00 0.00 0.00 0.00 0.00 0.00 0.00 0.00 0.00 0.00 0.00 0.00 0.00 0.00 0.00 0.00 0.00
0.00 0.00 0.00 0.00 0.00 0.00 0.00 0.00 0.00 0.00 0.00 0.00 0.00 0.00 0.00 0.00 0.00 0.00 0.00 0.00 0.00 0.00 0.00 0.00 0.00 0.00 0.00 0.00 0.00 0.00 0.00 0.00 0.00 0.00 0.00 0.00 0.00 0.00 0.00 0.00 0.00 0.00 0.00
0.00 0.00 0.00 0.00 0.00 0.00 0.00 0.00 0.00 0.00 0.00 0.00 0.00 0.00 0.00 0.00 0.00 0.00 0.00 0.00 0.00 0.00 0.00 0.00 0.00 0.00 0.00 0.00 0.00 0.00 0.00 0.00 0.00 0.00 0.00 0.00 0.00 0.00 0.00 0.00 0.00 0.00 0.00
0.00 0.00 0.00 0.00 0.00 0.00 0.00 0.00 0.00 0.00 0.00 0.00 0.00 0.00 0.00 0.00 0.00 0.00 0.00 0.00 0.00 0.00 0.00 0.00 0.00 0.00 0.00 0.00 0.00 0.00 0.00 0.00 0.00 0.00 0.00 0.00 0.00 0.00 0.00 0.00 0.00 0.00 0.00
MSLP
1016.51 1016.21 1016.18 1016.43 1016.29 1016.10 1015.86 1015.77 1015.50 1015.28 1015.04 1015.05 1015.02 1014.88 1014.67 1014.63 1014.35 1014.25 1014.17 1014.59 1014.91 1015.48 1016.06 1016.62 1017.16 1017.61 1018.23 1018.81 1019.27 1019.70 1020.26 1020.84 1022.41 1023.95 1024.35 1024.73 1024.91 1024.94 1025.04 1025.27 1025.30 1025.30 1025.43
1016.37 1016.21 1016.06 1016.24 1016.16 1016.04 1015.90 1015.56 1015.37 1014.90 1014.86 1014.70 1014.82 1014.82 1014.74 1014.73 1014.52 1014.32 1014.19 1014.78 1015.13 1015.64 1016.07 1016.80 1017.34 1017.76 1018.38 1018.86 1019.28 1019.89 1020.56 1020.99 1021.93 1023.40 1024.33 1024.71 1024.85 1024.99 1025.16 1025.27 1025.37 1025.48 1025.58
1016.43 1016.18 1015.99 1016.21 1015.99 1015.96 1015.85 1015.51 1015.11 1014.85 1014.79 1014.60 1014.74 1014.68 1014.63 1014.75 1014.65 1014.54 1014.61 1014.97 1015.41 1015.84 1016.38 1016.88 1017.38 1017.85 1018.50 1019.04 1019.61 1020.15 1020.76 1021.35 1021.69 1022.67 1024.03 1024.58 1024.98 1025.07 1025.36 1025.50 1025.48 1025.60 1025.60
1016.35 1016.17 1016.01 1016.23 1015.84 1015.87 1015.87 1015.39 1015.13 1014.75 1014.67 1014.68 1014.68 1014.70 1014.63 1014.64 1014.75 1014.89 1015.07 1015.50 1015.90 1016.29 1016.75 1017.24 1017.58 1018.03 1018.46 1018.92 1019.57 1020.43 1021.17 1021.70 1022.07 1022.82 1023.60 1024.34 1024.67 1025.06 1025.27 1025.54 1025.80 1025.89 1025.87
1016.26 1016.10 1015.97 1015.99 1016.05 1015.84 1015.72 1015.51 1015.23 1014.83 1014.83 1014.76 1014.81 1015.02 1015.10 1015.08 1015.01 1015.18 1015.54 1015.95 1016.37 1016.87 1017.27 1017.65 1018.04 1018.27 1018.62 1019.13 1019.81 1020.68 1021.20 1021.74 1022.32 1022.95 1023.71 1024.36 1025.03 1025.48 1025.45 1025.65 1025.96 1026.29 1026.13
1016.07 1016.02 1015.93 1015.87 1016.09 1016.03 1015.80 1015.85 1015.40 1015.39 1015.35 1015.28 1015.41 1015.51 1015.77 1015.91 1015.83 1015.90 1016.10 1016.68 1017.04 1017.43 1017.99 1018.47 1018.78 1018.92 1019.35 1019.85 1020.55 1021.26 1021.57 1021.88 1022.53 1023.05 1023.80 1024.37 1024.85 1025.20 1025.48 1025.90 1026.17 1026.52 1026.52
1015.86 1015.98 1015.96 1016.15 1015.96 1016.38 1016.03 1015.95 1016.08 1015.85 1015.75 1015.90 1016.13 1016.28 1016.52 1016.79 1016.60 1016.62 1016.87 1017.36 1017.88 1018.33 1018.60 1018.95 1019.47 1019.86 1020.13 1020.75 1021.49 1021.90 1022.49 1022.62 1022.78 1023.04 1023.73 1024.41 1024.90 1025.21 1025.50 1025.93 1026.12 1026.46 1026.61
1015.64 1015.89 1015.80 1016.22 1016.33 1016.33 1016.69 1016.40 1016.29 1016.29 1016.30 1016.43 1016.71 1017.14 1017.26 1017.51 1017.20 1017.27 1017.57 1018.14 1018.62 1019.23 1019.46 1019.60 1019.98 1020.57 1021.01 1021.23 1021.98 1022.73 1023.38 1023.72 1023.93 1023.92 1024.32 1024.85 1024.82 1025.46 1025.34 1025.67 1026.07 1026.47 1026.84
1015.43 1015.65 1015.81 1016.25 1016.72 1016.52 1016.72 1016.88 1016.93 1017.05 1017.23 1017.44 1017.51 1017.61 1017.74 1018.07 1018.02 1017.98 1018.20 1018.92 1019.60 1020.27 1020.54 1020.73 1020.88 1021.45 1021.81 1021.97 1022.52 1023.63 1024.42 1025.11 1025.06 1024.92 1025.23 1025.44 1025.45 1025.64 1025.65 1025.99 1026.53 1026.65 1027.20
1015.12 1015.33 1015.65 1016.04 1016.72 1016.90 1016.89 1017.30 1017.53 1017.56 1017.79 1017.95 1018.15 1018.24 1018.45 1018.81 1019.03 1019.14 1019.13 1019.53 1020.22 1021.11 1021.69 1021.98 1022.22 1022.22 1022.51 1022.80 1023.23 1024.04 1024.94 1025.86 1025.73 1025.89 1026.18 1026.37 1026.50 1026.56 1026.57 1026.80 1026.96 1027.21 1027.45
1014.70 1015.09 1015.67 1015.89 1016.60 1017.16 1017.11 1017.22 1017.75 1018.08 1018.26 1018.72 1019.02 1019.51 1019.46 1019.66 1019.97 1019.96 1020.04 1020.25 1020.94 1021.75 1022.49 1022.99 1023.20 1022.97 1023.15 1023.36 1023.73 1024.09 1025.05 1025.74 1026.25 1026.53 1026.99 1027.42 1027.53 1027.64 1027.77 1027.64 1027.46 1027.33 1027.54
1014.46 1015.06 1015.73 1016.14 1016.56 1017.35 1017.75 1017.92 1017.97 1018.34 1018.78 1019.39 1019.81 1020.32 1020.61 1020.60 1020.65 1020.82 1020.88 1021.23 1021.91 1022.21 1023.28 1023.77 1023.99 1023.84 1023.98 1024.39 1024.74 1025.09 1025.65 1026.29 1026.70 1027.17 1027.62 1028.26 1028.39 1028.56 1028.75 1028.61 1028.45 1028.33 1028.29
1014.30 1014.97 1015.63 1016.25 1016.70 1017.41 1017.96 1018.31 1018.49 1018.51 1019.08 1019.85 1020.21 1020.75 1021.51 1021.76 1021.77 1021.76 1021.84 1022.37 1022.88 1023.39 1024.01 1024.26 1024.47 1024.72 1025.02 1025.33 1025.75 1026.18 1026.77 1026.81 1027.16 1027.67 1028.56 1029.07 1029.22 1029.33 1029.05 1029.19 1029.07 1029.00 1029.05
1014.03 1014.85 1015.52 1016.20 1016.90 1017.52 1018.10 1018.47 1018.75 1018.87 1019.57 1020.16 1020.87 1021.40 1021.95 1022.40 1022.43 1022.60 1022.88 1023.28 1023.78 1024.21 1024.82 1025.54 1025.53 1025.86 1026.30 1026.89 1027.09 1027.27 1027.45 1027.53 1027.90 1028.53 1029.03 1029.25 1029.43 1029.34 1029.46 1029.78 1029.83 1029.73 1029.52
1013.96 1014.66 1015.49 1016.11 1016.73 1017.46 1018.24 1018.64 1018.92 1019.04 1018.76 1019.40 1020.49 1021.01 1021.57 1022.36 1022.50 1022.62 1022.79 1023.36 1023.96 1024.62 1025.50 1026.22 1026.53 1026.94 1027.18 1027.55 1027.92 1028.18 1028.34 1028.68 1029.19 1029.60 1029.92 1030.20 1030.25 1030.13 1030.42 1030.51 1030.67 1030.75 1031.21
1013.80 1014.49 1015.15 1016.01 1016.77 1017.27 1018.03 1018.93 1019.34 1019.59 1019.64 1019.69 1019.89 1020.29 1021.22 1021.59 1022.34 1022.83 1023.21 1023.56 1024.21 1024.91 1025.69 1026.45 1026.92 1027.26 1027.59 1028.05 1028.51 1029.04 1029.61 1030.10 1030.36 1030.41 1030.63 1030.80 1031.06 1031.68 1031.80 1031.71 1031.91 1032.24 1032.67
1013.23 1014.23 1014.97 1015.79 1016.61 1017.29 1017.99 1018.69 1019.45 1020.27 1020.49 1020.69 1020.99 1021.21 1021.46 1021.80 1022.70 1023.04 1023.42 1023.97 1024.27 1024.59 1025.40 1026.32 1026.86 1027.44 1028.06 1028.67 1029.27 1029.73 1030.31 1030.91 1031.39 1031.45 1031.69 1031.89 1031.93 1032.10 1032.73 1032.97 1033.35 1033.61 1034.32
1013.21 1014.06 1014.79 1015.57 1016.33 1017.20 1017.74 1018.42 1019.14 1019.76 1020.69 1021.36 1021.41 1021.59 1022.10 1022.54 1022.86 1023.24 1023.78 1024.28 1025.00 1025.43 1025.84 1026.61 1027.22 1027.81 1028.64 1029.26 1029.89 1030.44 1031.06 1031.36 1031.56 1031.83 1032.15 1032.36 1032.77 1032.88 1033.67 1034.33 1034.63 1034.94 1035.29
1012.98 1013.69 1014.61 1015.55 1016.25 1017.04 1017.89 1018.30 1019.03 1020.01 1020.69 1021.38 1021.81 1022.10 1022.45 1022.71 1023.19 1023.78 1024.12 1024.50 1025.30 1026.17 1026.57 1027.18 1027.75 1028.40 1029.16 1029.81 1030.41 1030.91 1031.22 1031.66 1031.99 1032.26 1032.83 1033.09 1033.52 1033.92 1034.83 1034.99 1035.37 1035.67 1035.92
1012.78 1013.45 1014.13 1015.11 1015.98 1016.95 1017.89 1018.54 1019.12 1020.01 1020.66 1020.88 1021.51 1021.82 1022.21 1022.81 1023.30 1024.01 1024.66 1025.35 1026.05 1026.68 1027.18 1027.89 1028.70 1029.24 1029.80 1030.27 1030.81 1031.27 1031.62 1032.09 1032.72 1033.10 1033.68 1033.84 1034.26 1034.65 1035.46 1035.90 1036.14 1036.58 1037.29
1012.35 1013.22 1013.85 1014.64 1015.53 1016.27 1017.44 1018.12 1018.86 1019.56 1020.24 1020.83 1021.10 1021.52 1021.90 1022.46 1023.44 1024.28 1025.02 1025.91 1026.64 1027.33 1027.82 1028.47 1029.22 1029.79 1030.24 1030.76 1031.33 1031.75 1032.42 1033.35 1033.43 1033.78 1034.15 1034.68 1035.18 1035.68 1036.13 1036.66 1036.87 1037.03 1037.32
1011.73 1012.63 1013.56 1014.16 1015.11 1015.96 1017.13 1017.85 1018.59 1019.21 1019.97 1020.45 1021.05 1021.57 1022.15 1022.85 1023.72 1024.73 1025.70 1026.39 1027.20 1027.74 1028.30 1028.80 1029.93 1030.44 1030.87 1030.97 1031.55 1032.32 1032.74 1033.46 1033.89 1034.47 1034.64 1035.37 1035.73 1036.22 1036.50 1036.98 1037.49 1037.76 1037.77
1011.23 1012.19 1012.97 1014.01 1014.79 1015.63 1016.65 1017.67 1018.23 1018.78 1019.68 1020.33 1020.92 1021.70 1022.60 1023.41 1024.17 1025.24 1026.29 1027.07 1027.71 1028.30 1029.06 1029.71 1030.50 1031.40 1031.74 1032.15 1032.17 1032.19 1032.55 1033.52 1034.02 1034.15 1034.54 1035.48 1036.21 1036.84 1037.15 1037.71 1038.10 1038.55 1038.62
1010.45 1011.38 1012.28 1013.33 1014.37 1015.19 1016.00 1017.04 1017.73 1018.37 1019.20 1020.18 1021.00 1021.80 1022.73 1023.77 1024.65 1025.68 1026.67 1027.45 1028.16 1028.82 1029.69 1030.34 1030.86 1031.43 1032.00 1032.60 1032.84 1033.12 1033.25 1034.34 1034.83 1034.58 1034.66 1035.38 1036.45 1037.26 1037.52 1038.19 1038.76 1038.96 1039.14
1009.41 1010.39 1011.28 1012.33 1013.53 1014.45 1015.50 1016.36 1017.28 1018.01 1018.89 1019.99 1021.03 1022.09 1022.99 1024.05 1025.05 1026.05 1026.84 1027.84 1028.45 1029.34 1030.28 1030.95 1031.51 1031.91 1032.38 1032.84 1033.19 1033.47 1033.80 1034.67 1035.24 1035.17 1035.60 1036.11 1036.67 1037.47 1037.99 1038.47 1038.98 1039.41 1039.45
1008.77 1009.55 1010.30 1011.50 1012.67 1013.50 1014.41 1015.51 1016.51 1017.59 1018.47 1019.63 1020.87 1022.03 1023.00 1024.17 1025.41 1026.39 1027.04 1028.14 1028.86 1030.04 1030.79 1031.46 1032.01 1032.24 1032.86 1033.30 1033.46 1033.75 1034.13 1034.87 1035.56 1035.88 1036.09 1036.49 1037.20 1037.93 1038.09 1039.31 1039.74 1039.89 1040.21
Thickness
5551 5546 5539 5532 5524 5518 5512 5509 5510 5511 5514 5514 5517 5520 5523 5524 5529 5532 5533 5531 5531 5531 5530 5531 5532 5532 5530 5529 5531 5532 5532 5531 5523 5514 5514 5513 5512 5512 5512 5510 5509 5511 5511
5554 5549 5544 5539 5532 5529 5526 5526 5526 5528 5527 5529 5527 5528 5529 5530 5532 5535 5538 5535 5537 5538 5538 5534 5533 5534 5533 5533 5535 5534 5532 5532 5529 5521 5514 5513 5512 5511 5509 5508 5509 5509 5508
5554 5553 5548 5543 5539 5537 5537 5536 5538 5538 5536 5538 5536 5536 5537 5537 5537 5538 5539 5540 5541 5542 5541 5541 5540 5539 5538 5537 5537 5535 5533 5531 5532 5525 5516 5513 5509 5509 5506 5505 5507 5506 5505
5556 5555 5551 5545 5547 5542 5541 5542 5542 5545 5545 5543 5543 5543 5543 5542 5543 5542 5543 5542 5544 5544 5543 5543 5543 5543 5542 5543 5540 5535 5531 5530 5528 5524 5518 5512 5509 5506 5505 5503 5501 5501 5501
5558 5556 5553 5550 5548 5546 5544 5546 5546 5547 5546 5546 5546 5544 5544 5545 5547 5547 5546 5545 5544 5543 5543 5543 5544 5545 5545 5543 5540 5535 5532 5529 5526 5522 5515 5510 5503 5500 5502 5500 5497 5493 5495
5559 5556 5556 5554 5550 5549 5547 5545 5549 5549 5548 5546 5546 5545 5543 5542 5543 5545 5546 5544 5543 5542 5540 5539 5538 5540 5539 5538 5534 5531 5530 5528 5523 5519 5512 5509 5504 5500 5497 5494 5493 5490 5491
5558 5556 5555 5552 5553 5547 5547 5546 5544 5546 5548 5547 5544 5542 5541 5538 5540 5541 5542 5541 5539 5537 5538 5538 5536 5535 5535 5531 5527 5524 5521 5519 5517 5516 5511 5506 5501 5497 5495 5490 5490 5487 5486
5558 5557 5556 5552 5549 5548 5543 5544 5544 5544 5544 5544 5542 5539 5538 5537 5540 5540 5538 5536 5534 5531 5532 5534 5533 5530 5528 5527 5522 5517 5512 5509 5507 5506 5502 5498 5499 5492 5493 5490 5487 5483 5479
5556 5557 5553 5549 5545 5547 5544 5541 5540 5539 5539 5537 5537 5537 5536 5534 5534 5536 5537 5532 5528 5525 5524 5525 5527 5523 5520 5520 5516 5509 5503 5498 5498 5498 5494 5491 5491 5489 5488 5485 5479 5475 5469
5554 5555 5552 5549 5545 5543 5543 5538 5536 5536 5534 5533 5532 5533 5530 5528 5527 5528 5530 5529 5525 5519 5516 5515 5515 5515 5513 5512 5509 5504 5497 5490 5492 5491 5489 5485 5483 5481 5480 5475 5471 5466 5459
5553 5552 5548 5548 5543 5539 5540 5540 5535 5533 5532 5530 5527 5524 5525 5524 5522 5522 5524 5523 5518 5514 5509 5506 5506 5508 5507 5506 5504 5502 5495 5492 5488 5484 5480 5475 5473 5470 5467 5464 5461 5457 5454
5549 5547 5543 5541 5539 5534 5532 5533 5534 5532 5529 5525 5522 5517 5516 5517 5517 5517 5517 5514 5510 5510 5502 5498 5498 5499 5499 5496 5495 5492 5488 5485 5481 5476 5472 5464 5461 5458 5455 5451 5448 5444 5438
5545 5542 5538 5535 5534 5529 5527 5526 5527 5528 5525 5518 5517 5513 5508 5506 5508 5509 5508 5504 5502 5499 5494 5493 5492 5491 5489 5487 5484 5481 5478 5476 5473 5468 5461 5454 5451 5449 5446 5440 5436 5431 5426
5540 5536 5533 5530 5527 5524 5520 5520 5521 5522 5516 5512 5508 5505 5501 5499 5500 5500 5498 5496 5493 5490 5486 5483 5482 5479 5476 5473 5470 5469 5467 5465 5462 5456 5450 5447 5445 5440 5435 5430 5423 5417 5413
5534 5531 5527 5525 5523 5518 5513 5512 5512 5513 5518 5514 5507 5504 5501 5496 5496 5496 5495 5491 5488 5483 5477 5471 5467 5465 5465 5462 5460 5458 5455 5451 5448 5443 5438 5433 5430 5428 5421 5417 5410 5403 5395
5527 5525 5523 5519 5515 5513 5510 5504 5503 5504 5506 5506 5506 5505 5497 5496 5492 5489 5487 5485 5480 5475 5469 5467 5463 5462 5459 5456 5452 5447 5441 5436 5430 5429 5425 5421 5416 5407 5403 5401 5394 5385 5375
5523 5518 5515 5512 5509 5506 5502 5501 5497 5492 5494 5495 5494 5493 5492 5489 5483 5481 5479 5476 5474 5473 5469 5465 5462 5457 5451 5446 5440 5436 5430 5423 5420 5415 5410 5405 5402 5398 5389 5382 5373 5364 5353
5512 5510 5508 5505 5503 5498 5498 5494 5492 5490 5485 5482 5485 5484 5481 5477 5475 5473 5470 5468 5463 5462 5460 5456 5451 5447 5439 5434 5428 5423 5417 5415 5411 5406 5401 5396 5388 5383 5373 5364 5354 5344 5335
5504 5504 5501 5495 5494 5492 5489 5489 5485 5477 5476 5474 5473 5473 5471 5469 5467 5462 5461 5461 5456 5451 5448 5445 5440 5435 5429 5424 5418 5414 5411 5405 5400 5396 5388 5384 5376 5369 5356 5347 5339 5329 5319
5494 5495 5495 5490 5487 5483 5480 5479 5476 5471 5469 5471 5468 5468 5466 5463 5460 5455 5451 5447 5444 5440 5436 5432 5425 5421 5417 5413 5409 5404 5400 5396 5389 5384 5375 5370 5362 5354 5342 5332 5323 5314 5299
5486 5485 5487 5485 5483 5481 5474 5473 5471 5469 5466 5463 5464 5464 5463 5460 5453 5448 5444 5438 5432 5428 5424 5420 5415 5410 5408 5404 5399 5394 5387 5376 5374 5370 5364 5356 5347 5337 5326 5316 5306 5296 5286
5479 5478 5477 5479 5476 5473 5468 5465 5462 5462 5459 5458 5456 5455 5452 5449 5444 5438 5432 5428 5423 5419 5414 5411 5404 5400 5396 5393 5388 5381 5375 5367 5362 5358 5352 5343 5333 5323 5314 5303 5292 5282 5276
5472 5470 5470 5467 5467 5465 5460 5455 5455 5455 5452 5451 5449 5444 5439 5436 5432 5425 5419 5415 5412 5407 5401 5397 5392 5387 5384 5379 5377 5373 5368 5358 5353 5349 5341 5331 5320 5308 5299 5287 5276 5266 5258
5469 5467 5466 5462 5458 5456 5454 5450 5449 5449 5447 5442 5436 5433 5429 5423 5419 5412 5407 5403 5398 5394 5388 5384 5381 5377 5372 5367 5364 5359 5355 5343 5336 5334 5327 5317 5305 5294 5286 5273 5262 5253 5244
5468 5466 5464 5459 5453 5451 5447 5445 5442 5441 5436 5429 5424 5420 5416 5410 5405 5400 5396 5390 5387 5381 5375 5370 5366 5362 5359 5354 5350 5345 5338 5328 5320 5316 5308 5300 5292 5282 5271 5260 5249 5239 5230
5462 5461 5460 5454 5449 5447 5445 5440 5437 5430 5427 5421 5415 5409 5404 5399 5392 5387 5385 5378 5373 5365 5361 5356 5352 5349 5344 5339 5336 5331 5325 5315 5306 5299 5293 5285 5275 5266 5257 5244 5234 5226 5216